User: anonymous   Login
Location: Powder Track
(41.8531°N, 72.3584°W)
Time: 02:04:08
(UTC+00:00)
Language:

FENGYUN 1C DEB - Orbit

View from above orbital plane
View from above orbital plane
View from above satellite
View from above satellite

Ground track
Ground track

The orbit data is extracted from the following two-line orbital elements,

1 29924U 99025HW  21339.61834995  .00000126  00000-0  98566-4 0  9991
2 29924  98.8602   8.8128 0028029  79.2363  46.6423 14.08316098765406
Epoch (UTC): 05 December 2021 14:50:25
Eccentricity: 0.0028029
inclination: 98.8602°
perigee height: 845 km
apogee height: 885 km
right ascension of ascending node: 8.8128°
argument of perigee: 79.2363°
revolutions per day: 14.08316098
mean anomaly at epoch: 46.6423°
orbit number at epoch: 76540

The dashed part of the orbit path shows where the satellite is in the earth's shadow,  

DLR